Temp
82 82 79 74 62 63 59 62 69 62 65 73 75 72 71 73 66 56 70 74 76 76 77 78 82 83 83 83 83 83 83 83 83 83 83 83 83 83 83 84 84 84 84 84 84 84 83 84 82
81 81 76 69 58 55 59 68 67 71 73 74 76 75 73 65 70 68 69 76 78 77 76 78 82 83 83 83 83 83 83 83 83 83 83 83 84 84 84 84 84 84 84 84 84 84 84 84 83
82 85 71 66 64 60 62 71 68 70 75 74 75 79 74 65 71 71 75 78 79 77 78 79 83 83 83 83 83 83 83 84 83 83 83 83 84 83 83 83 84 83 84 84 84 84 83 83 83
80 74 73 64 64 69 71 74 74 74 80 82 77 69 72 77 75 74 78 80 78 78 79 82 83 84 84 83 83 84 83 83 83 84 84 84 83 84 83 84 84 84 84 83 83 83 83 83 83
80 73 65 62 68 74 78 78 78 75 76 78 78 67 67 73 76 77 78 80 78 76 78 81 83 84 84 84 84 84 84 84 83 84 84 84 84 84 84 84 84 84 83 84 84 84 83 83 83
74 73 62 60 71 79 79 81 78 75 75 75 72 69 66 75 76 77 79 77 79 77 80 81 83 83 83 84 84 84 84 83 83 84 84 84 84 84 84 84 84 84 84 84 84 83 83 83 83
73 69 66 69 70 71 76 81 75 74 74 74 78 66 66 73 78 79 78 78 78 79 78 78 79 82 84 84 84 84 83 84 84 84 84 84 84 84 84 84 84 84 85 84 84 83 83 83 83
78 75 69 69 70 70 80 80 81 78 74 82 80 66 63 73 79 80 78 77 76 79 78 77 76 78 77 79 84 84 84 84 84 84 84 84 84 84 84 83 84 84 84 84 84 83 83 83 83
88 68 66 71 73 74 82 76 82 85 78 82 81 76 78 79 80 76 73 73 73 75 75 76 76 75 76 77 80 83 84 84 84 83 84 82 74 77 79 80 82 84 84 84 84 83 83 83 83
81 68 73 82 81 78 82 82 81 78 77 74 75 79 81 81 79 74 72 71 72 73 74 76 75 75 75 82 76 75 77 76 75 76 76 74 73 73 77 80 84 84 84 84 84 84 83 83 76
83 74 84 85 86 86 83 83 84 76 70 74 72 75 78 79 78 76 75 74 74 74 76 76 77 76 76 75 73 72 73 74 73 73 74 74 74 72 74 73 76 74 80 74 77 77 78 78 74
82 87 88 87 88 85 82 87 80 79 76 81 79 79 78 78 76 77 75 75 73 73 77 77 78 77 73 72 72 71 72 73 73 74 74 73 71 71 72 71 73 73 72 72 72 71 73 74 74
80 85 86 88 88 86 87 81 80 78 82 82 81 80 78 78 78 81 81 79 75 73 76 78 77 73 73 72 71 71 72 73 74 74 74 73 71 73 72 72 72 71 72 70 70 71 71 72 72
85 84 85 86 84 87 82 80 81 80 83 80 80 78 79 78 80 80 81 80 75 79 78 78 76 74 74 72 72 73 72 73 73 72 73 73 72 73 72 71 71 70 70 71 72 70 71 72 73
84 77 79 81 84 80 80 75 75 82 84 79 79 80 81 81 82 81 83 82 80 80 81 77 77 76 74 75 74 74 74 74 72 71 73 73 72 72 72 71 70 71 71 72 70 71 71 70 73
77 77 69 78 82 79 77 64 78 83 81 79 81 81 81 82 84 83 83 85 79 81 79 80 83 78 76 75 74 73 74 73 72 72 72 73 73 74 73 73 72 72 71 71 69 70 70 68 68
71 62 67 73 79 77 73 64 76 83 81 79 79 79 82 82 85 82 84 81 80 80 80 80 80 77 74 75 75 73 74 73 73 71 72 73 74 75 73 72 72 72 71 71 70 69 69 68 67
65 67 69 70 75 76 69 68 76 82 82 80 80 78 77 83 80 78 78 80 79 80 82 81 80 78 75 73 72 73 73 74 72 70 71 73 73 73 71 71 71 72 72 71 70 70 69 68 68
75 70 72 74 79 73 70 69 70 77 80 79 79 76 78 79 78 81 81 82 78 79 78 80 76 75 74 68 69 70 71 72 72 70 72 72 73 73 71 70 72 72 70 71 71 71 70 69 69
76 74 73 77 80 74 72 68 68 71 76 80 81 78 80 79 80 78 78 80 79 80 76 76 79 75 74 70 71 73 72 73 73 74 73 74 73 73 72 71 73 74 71 71 72 72 69 69 70
73 72 70 73 79 80 69 62 64 72 73 78 80 82 83 80 78 73 76 79 80 76 75 74 75 75 74 74 72 72 73 74 73 74 74 74 75 74 74 74 73 73 72 72 73 74 72 67 68
65 82 82 80 70 61 73 58 59 65 71 75 79 76 79 80 82 75 77 79 80 74 74 74 73 74 75 72 70 69 71 70 72 72 73 75 76 75 75 73 73 72 73 71 71 73 71 69 67
76 85 84 79 74 69 65 55 58 65 64 69 72 76 78 80 82 76 76 78 80 76 74 74 71 72 73 72 70 69 70 71 72 71 71 73 72 73 73 72 73 72 70 69 69 70 70 70 68
86 80 75 68 67 56 62 60 57 60 67 71 74 74 78 79 82 78 78 76 78 80 74 73 70 71 73 72 71 71 70 68 69 68 69 69 69 69 69 70 70 69 68 67 67 67 69 68 68
74 64 55 55 55 55 55 61 63 71 72 75 74 77 77 80 76 75 74 71 75 75 74 72 71 71 71 70 70 70 71 71 70 69 69 69 66 65 66 68 67 66 66 65 64 65 66 66 69
67 64 55 49 50 55 59 56 65 71 74 75 79 77 77 77 77 75 73 74 73 75 74 74 73 70 70 72 71 71 71 69 68 68 67 67 65 65 66 66 65 65 64 63 63 63 64 63 63
71 62 68 58 51 53 57 60 69 70 72 75 76 78 76 78 78 77 76 75 75 74 74 74 72 71 72 71 71 70 70 68 67 66 66 65 65 68 65 65 63 63 62 62 61 61 62 62 62
72 73 60 55 49 46 52 54 58 64 68 72 73 77 77 77 77 78 78 76 77 76 74 74 73 72 71 71 70 70 68 68 67 66 65 64 64 64 63 62 62 61 60 60 60 60 61 61 61
67 62 60 60 54 51 48 53 64 69 72 72 73 77 77 76 77 78 78 75 75 75 74 73 73 71 72 72 72 70 67 66 65 65 64 63 62 62 60 60 59 58 57 58 58 59 59 59 59
70 69 64 56 55 52 53 56 72 76 77 70 73 76 77 79 78 79 75 74 73 73 73 72 72 72 74 74 72 70 66 65 64 63 62 62 60 60 60 58 55 53 54 56 57 58 58 58 58
MSLP
1007.55 1007.75 1008.37 1008.40 1008.86 1008.35 1008.72 1009.44 1008.73 1009.39 1009.09 1008.73 1009.32 1009.52 1009.91 1010.22 1011.61 1013.21 1013.18 1013.05 1013.23 1013.72 1013.78 1013.78 1013.67 1013.68 1013.88 1014.08 1014.30 1014.35 1014.30 1014.34 1014.36 1014.39 1014.49 1014.67 1014.82 1014.87 1014.95 1015.04 1015.21 1015.37 1015.55 1015.63 1015.74 1015.81 1015.93 1015.97 1015.96
1007.08 1008.12 1008.21 1007.91 1008.11 1008.37 1008.39 1008.43 1008.58 1008.24 1008.03 1008.21 1009.03 1009.32 1009.93 1011.25 1011.94 1012.83 1013.18 1013.16 1013.35 1013.65 1013.83 1013.83 1013.75 1013.93 1014.09 1014.16 1014.42 1014.47 1014.55 1014.51 1014.59 1014.64 1014.78 1014.99 1015.03 1015.04 1015.10 1015.18 1015.44 1015.62 1015.76 1015.82 1015.87 1015.93 1016.03 1016.05 1016.19
1006.68 1006.78 1007.33 1007.21 1007.30 1007.19 1007.30 1008.01 1008.13 1008.26 1008.02 1008.50 1008.69 1009.33 1010.24 1012.09 1012.53 1012.68 1013.05 1013.15 1013.29 1013.67 1013.81 1013.80 1013.92 1014.11 1014.16 1014.22 1014.46 1014.67 1014.76 1014.61 1014.77 1014.87 1014.99 1015.20 1015.21 1015.32 1015.26 1015.36 1015.66 1015.92 1016.05 1016.08 1015.95 1015.95 1016.08 1016.27 1016.33
1006.70 1006.96 1006.79 1006.73 1006.62 1006.44 1006.71 1007.08 1007.38 1007.87 1007.97 1007.95 1008.79 1010.10 1011.25 1011.97 1012.26 1012.57 1012.92 1013.05 1013.30 1013.52 1013.75 1013.85 1014.04 1014.27 1014.25 1014.31 1014.51 1014.70 1014.66 1014.72 1014.91 1015.05 1015.10 1015.21 1015.28 1015.28 1015.41 1015.47 1015.66 1015.90 1016.12 1016.28 1016.15 1016.11 1016.18 1016.41 1016.60
1006.27 1006.38 1006.48 1006.18 1006.01 1006.10 1006.41 1006.76 1006.92 1006.97 1007.40 1008.21 1008.86 1010.86 1011.70 1012.28 1012.32 1012.69 1012.85 1013.07 1013.27 1013.69 1013.80 1014.04 1014.12 1014.19 1014.35 1014.45 1014.63 1014.72 1014.78 1014.87 1015.02 1015.07 1015.07 1015.23 1015.38 1015.37 1015.49 1015.61 1015.83 1015.99 1016.11 1016.21 1016.23 1016.24 1016.20 1016.37 1016.67
1006.12 1006.06 1006.38 1006.09 1005.83 1005.71 1006.34 1006.41 1006.51 1007.26 1007.76 1008.62 1009.53 1010.30 1012.17 1012.47 1012.48 1012.82 1012.94 1013.09 1013.06 1013.55 1013.82 1014.09 1014.23 1014.27 1014.32 1014.41 1014.48 1014.65 1014.79 1014.86 1014.95 1015.08 1015.08 1015.20 1015.34 1015.41 1015.52 1015.66 1015.84 1015.95 1016.00 1016.15 1016.30 1016.36 1016.38 1016.52 1016.82
1005.85 1005.81 1005.66 1005.67 1006.00 1005.98 1006.25 1006.38 1006.40 1007.21 1007.83 1008.59 1009.08 1010.55 1012.52 1012.65 1012.56 1012.65 1012.99 1013.23 1013.54 1013.56 1013.78 1013.95 1014.24 1014.22 1014.32 1014.31 1014.37 1014.61 1014.77 1014.81 1014.90 1015.04 1015.16 1015.26 1015.36 1015.52 1015.60 1015.64 1015.73 1015.82 1015.94 1016.17 1016.31 1016.45 1016.52 1016.43 1016.60
1004.84 1004.97 1005.30 1005.38 1005.65 1005.85 1005.89 1006.15 1006.27 1006.73 1007.98 1008.62 1009.29 1010.61 1011.92 1012.30 1012.50 1012.65 1013.05 1013.46 1013.79 1013.89 1013.81 1014.04 1014.10 1014.27 1014.40 1014.44 1014.41 1014.67 1014.88 1014.91 1014.93 1015.09 1015.21 1015.29 1015.42 1015.49 1015.51 1015.57 1015.68 1015.82 1015.94 1016.11 1016.33 1016.53 1016.66 1016.59 1016.59
1003.48 1004.48 1004.73 1004.89 1004.98 1005.34 1005.18 1005.78 1006.80 1007.19 1007.77 1008.63 1009.20 1009.87 1010.94 1011.86 1012.61 1013.03 1013.45 1013.71 1013.90 1014.06 1014.12 1013.95 1014.23 1014.34 1014.46 1014.60 1014.63 1014.82 1014.95 1014.94 1014.99 1015.20 1015.28 1015.50 1015.68 1015.71 1015.72 1015.84 1015.79 1015.77 1015.96 1016.19 1016.38 1016.50 1016.52 1016.58 1016.60
1002.99 1003.31 1003.69 1003.75 1004.12 1004.47 1004.83 1005.34 1006.18 1007.25 1008.18 1009.27 1009.66 1010.41 1011.23 1011.89 1012.50 1012.97 1013.47 1013.62 1014.02 1014.14 1014.18 1014.23 1014.15 1014.29 1014.56 1014.53 1014.66 1014.76 1014.93 1015.22 1015.32 1015.34 1015.41 1015.59 1015.82 1015.86 1015.78 1015.80 1015.71 1015.70 1015.89 1016.12 1016.24 1016.40 1016.46 1016.48 1016.63
1002.61 1002.75 1003.16 1003.31 1003.45 1003.84 1004.41 1004.92 1005.80 1007.05 1008.65 1008.64 1009.47 1010.38 1011.00 1011.65 1012.29 1012.66 1013.09 1013.32 1013.34 1013.67 1013.90 1014.10 1014.21 1014.23 1014.30 1014.21 1014.51 1014.90 1014.99 1015.20 1015.39 1015.50 1015.55 1015.57 1015.73 1015.92 1015.92 1015.90 1015.80 1015.73 1015.86 1016.25 1016.23 1016.34 1016.47 1016.49 1016.64
1002.31 1002.80 1002.78 1003.02 1003.23 1003.70 1004.25 1004.66 1006.18 1006.55 1007.90 1008.68 1009.04 1009.81 1011.08 1011.58 1012.00 1012.27 1012.56 1012.93 1013.35 1013.67 1013.59 1013.61 1013.84 1014.26 1014.31 1014.65 1014.58 1014.52 1014.82 1015.08 1015.38 1015.32 1015.33 1015.41 1015.54 1015.85 1015.91 1015.91 1015.75 1015.80 1015.94 1016.21 1016.35 1016.51 1016.54 1016.52 1016.59
1002.60 1003.04 1003.18 1003.14 1003.47 1003.91 1004.23 1004.80 1005.58 1006.87 1007.88 1008.88 1009.48 1010.10 1010.83 1011.29 1011.62 1011.89 1011.94 1012.26 1012.76 1012.96 1013.15 1013.34 1013.54 1013.83 1014.02 1014.49 1014.73 1014.69 1014.71 1014.87 1014.98 1015.10 1015.10 1015.39 1015.74 1015.83 1015.72 1015.73 1015.55 1015.69 1015.96 1016.13 1016.35 1016.40 1016.45 1016.49 1016.67
1002.94 1003.16 1003.56 1003.87 1004.19 1004.56 1004.83 1005.28 1005.72 1007.38 1008.11 1009.14 1009.74 1010.00 1010.42 1010.99 1011.29 1011.74 1011.77 1012.05 1012.32 1012.24 1012.78 1012.98 1013.40 1013.72 1013.83 1014.34 1014.44 1014.46 1014.22 1014.58 1014.88 1015.06 1015.04 1015.11 1015.52 1015.28 1015.42 1015.74 1015.63 1015.60 1015.82 1015.95 1016.04 1016.14 1016.23 1016.35 1016.42
1003.45 1003.60 1003.88 1004.67 1004.99 1005.38 1005.64 1006.39 1006.83 1007.50 1007.95 1008.85 1009.47 1009.78 1010.17 1010.28 1010.71 1010.95 1010.87 1011.20 1011.59 1011.85 1012.11 1012.69 1013.18 1013.55 1013.91 1014.11 1013.96 1013.92 1014.08 1014.37 1014.66 1014.95 1014.84 1014.98 1015.16 1015.09 1015.24 1015.62 1015.90 1015.54 1015.50 1015.60 1015.77 1015.80 1015.98 1016.17 1016.03
1004.00 1003.86 1004.33 1005.05 1004.93 1006.05 1006.03 1007.00 1007.18 1007.27 1007.62 1008.29 1009.04 1009.41 1009.65 1009.79 1009.78 1010.21 1010.53 1010.71 1011.27 1011.67 1012.11 1012.54 1013.08 1013.57 1013.88 1013.90 1013.79 1014.07 1014.35 1014.33 1014.59 1014.66 1014.74 1014.83 1014.99 1015.06 1015.11 1015.29 1015.54 1015.43 1015.49 1015.60 1015.79 1015.86 1015.99 1016.10 1016.24
1004.76 1004.96 1005.08 1005.44 1005.84 1005.93 1006.67 1007.32 1006.27 1006.41 1007.10 1007.93 1008.38 1008.73 1008.85 1009.18 1009.69 1009.90 1010.14 1010.41 1010.80 1010.94 1011.58 1012.35 1012.58 1013.07 1013.50 1013.77 1013.90 1014.05 1014.02 1014.41 1014.67 1014.81 1014.88 1014.81 1014.86 1014.94 1015.03 1015.10 1015.21 1015.24 1015.39 1015.62 1015.68 1015.77 1016.00 1016.06 1016.05
1004.87 1004.79 1005.17 1005.69 1005.93 1006.06 1006.86 1007.03 1007.54 1007.35 1007.03 1007.42 1007.65 1008.10 1008.44 1008.71 1009.33 1009.70 1009.84 1010.15 1010.26 1010.61 1010.91 1011.53 1012.24 1012.79 1013.29 1013.68 1013.98 1014.25 1014.27 1014.22 1014.47 1014.91 1015.08 1014.90 1014.78 1014.80 1015.08 1015.13 1015.14 1015.09 1015.21 1015.32 1015.29 1015.54 1015.69 1015.72 1015.73
1003.90 1003.91 1004.43 1004.94 1004.78 1006.03 1006.64 1007.53 1008.18 1008.17 1007.77 1007.43 1007.48 1007.49 1007.76 1008.53 1009.15 1009.28 1009.60 1010.17 1010.28 1010.76 1011.19 1011.38 1012.24 1012.77 1013.32 1013.93 1014.30 1014.51 1014.42 1014.37 1014.52 1014.62 1014.85 1015.08 1014.84 1014.81 1014.89 1014.94 1014.95 1015.01 1015.26 1015.15 1015.18 1015.23 1015.36 1015.37 1015.21
1003.24 1003.15 1003.88 1003.69 1004.16 1005.41 1006.72 1007.67 1008.45 1007.96 1007.59 1006.25 1006.09 1006.77 1007.08 1007.88 1008.82 1008.98 1009.65 1009.78 1009.64 1010.10 1010.77 1011.53 1012.17 1012.65 1013.25 1013.52 1013.66 1014.02 1014.28 1014.25 1014.05 1014.06 1014.38 1014.38 1014.40 1014.43 1014.60 1014.82 1014.80 1014.83 1015.09 1015.06 1014.86 1014.87 1015.11 1015.16 1014.99
1002.45 1002.58 1002.58 1002.86 1004.43 1005.65 1007.20 1008.31 1008.20 1007.86 1007.14 1006.43 1006.64 1006.70 1006.91 1007.18 1008.12 1008.75 1009.03 1009.12 1009.48 1010.28 1010.74 1011.42 1011.92 1012.26 1012.55 1013.49 1013.90 1014.22 1013.92 1014.20 1014.04 1014.01 1014.19 1014.04 1013.91 1014.00 1014.19 1014.27 1014.48 1014.69 1014.76 1014.69 1014.62 1014.51 1014.71 1015.04 1014.93
1001.89 1001.28 1001.35 1002.40 1004.08 1005.60 1006.37 1007.38 1007.37 1007.08 1006.41 1006.47 1006.69 1006.41 1006.77 1007.13 1007.50 1008.01 1008.47 1008.82 1009.15 1009.87 1010.54 1011.36 1011.82 1012.24 1012.76 1012.93 1012.96 1013.85 1014.41 1014.34 1014.20 1014.29 1014.18 1013.91 1013.85 1013.99 1014.10 1014.33 1014.43 1014.69 1014.86 1014.91 1014.86 1014.80 1014.70 1014.78 1014.95
1000.57 1000.46 1000.93 1001.72 1003.20 1004.63 1006.65 1007.50 1006.23 1006.00 1006.58 1006.08 1005.78 1005.59 1005.38 1006.16 1006.73 1007.51 1008.03 1008.07 1008.70 1009.63 1010.26 1011.05 1011.71 1012.32 1012.72 1012.67 1012.80 1013.38 1014.25 1014.59 1014.61 1014.73 1014.60 1014.58 1014.53 1014.34 1014.27 1014.64 1014.75 1014.86 1015.07 1015.21 1015.12 1014.95 1014.81 1014.77 1014.74
1000.02 1000.40 1000.85 1001.98 1003.42 1004.74 1005.08 1006.05 1006.27 1005.73 1004.82 1005.70 1005.67 1005.52 1004.54 1004.95 1006.15 1007.15 1007.66 1008.14 1008.68 1009.42 1010.26 1011.12 1011.64 1012.21 1012.42 1012.74 1013.14 1013.53 1014.16 1014.61 1014.69 1014.72 1014.79 1015.24 1015.14 1015.01 1015.01 1014.76 1015.11 1015.19 1015.33 1015.27 1015.16 1015.04 1014.97 1014.91 1014.83
1000.18 1001.42 1002.43 1003.60 1004.29 1005.41 1004.91 1005.44 1004.60 1004.25 1004.15 1004.46 1004.42 1004.21 1003.76 1004.10 1005.34 1006.73 1007.54 1008.47 1009.00 1009.21 1010.07 1010.86 1011.57 1012.10 1012.25 1012.78 1013.50 1013.66 1013.95 1014.23 1014.36 1014.53 1014.88 1015.43 1015.59 1015.53 1015.58 1015.36 1015.70 1015.66 1015.57 1015.55 1015.45 1015.29 1015.26 1015.24 1014.93
1000.31 1001.68 1002.90 1004.03 1005.25 1005.39 1005.21 1005.19 1003.63 1003.45 1003.53 1003.63 1003.19 1003.27 1004.52 1004.17 1004.71 1006.00 1007.29 1007.98 1008.93 1009.20 1009.72 1010.55 1011.25 1011.97 1012.51 1012.95 1013.50 1013.65 1013.86 1014.35 1014.60 1014.83 1015.18 1015.54 1015.86 1015.95 1015.87 1015.96 1015.96 1015.91 1015.79 1015.77 1015.66 1015.67 1015.67 1015.64 1015.43
1000.18 1001.06 1001.64 1003.30 1005.14 1005.64 1005.49 1005.05 1003.61 1003.11 1003.14 1002.78 1003.21 1004.20 1003.66 1003.85 1004.19 1005.40 1006.67 1007.62 1008.34 1009.26 1009.68 1010.36 1011.12 1011.97 1012.58 1013.06 1013.39 1013.74 1014.17 1014.52 1015.08 1015.39 1015.49 1015.79 1016.02 1016.30 1016.26 1016.14 1016.23 1016.26 1016.18 1016.24 1016.14 1016.02 1015.97 1015.97 1015.85
1000.05 1000.20 1001.81 1003.60 1005.16 1006.12 1006.22 1005.65 1003.93 1003.29 1002.91 1002.26 1002.90 1002.60 1002.62 1003.26 1003.76 1004.78 1006.22 1007.55 1008.21 1008.72 1009.52 1010.34 1011.05 1011.61 1012.33 1012.94 1013.36 1013.91 1014.48 1014.73 1015.15 1015.52 1015.89 1016.05 1016.26 1016.36 1016.54 1016.67 1016.71 1016.86 1016.76 1016.55 1016.51 1016.50 1016.47 1016.32 1016.28
999.95 1000.48 1001.65 1002.98 1004.46 1005.48 1005.89 1005.25 1002.33 1002.01 1001.50 1001.67 1002.12 1002.19 1001.96 1002.53 1003.33 1004.47 1005.62 1007.18 1007.97 1008.88 1009.47 1010.29 1011.10 1011.51 1012.21 1012.98 1013.50 1014.12 1014.80 1015.12 1015.47 1015.67 1015.94 1016.16 1016.33 1016.61 1016.89 1017.06 1017.36 1017.41 1017.28 1017.20 1016.99 1016.90 1016.77 1016.75 1016.88
999.74 1000.21 1001.23 1002.78 1004.14 1004.49 1004.25 1003.04 1001.17 1000.58 1000.46 1001.25 1001.25 1001.55 1001.64 1002.54 1003.43 1004.90 1005.67 1007.28 1008.42 1009.04 1009.64 1010.16 1010.82 1011.33 1011.92 1012.60 1013.47 1014.25 1014.85 1015.33 1015.76 1015.94 1016.25 1016.42 1016.69 1016.88 1017.18 1017.49 1017.60 1017.68 1017.56 1017.57 1017.58 1017.52 1017.29 1017.23 1017.37
Wind_Speed
9 7 2 3 3 5 4 5 10 7 8 5 14 3 5 9 3 3 4 7 10 6 4 4 11 12 13 13 11 11 11 12 12 12 12 11 11 11 11 11 11 11 10 11 12 12 12 11 11
11 10 2 2 6 5 3 4 9 6 6 14 6 5 3 5 6 10 4 11 9 8 5 4 9 12 14 13 11 11 11 11 10 10 10 10 9 11 11 11 10 10 10 11 12 11 12 11 10
13 10 2 2 3 4 6 14 14 8 15 10 7 5 4 4 9 4 6 10 10 7 6 6 11 12 13 12 11 11 10 10 9 9 10 9 10 11 11 11 10 9 9 10 11 10 10 10 10
4 1 3 3 5 4 6 20 18 14 9 5 12 10 6 3 4 8 11 11 10 9 8 10 13 13 12 13 12 10 10 9 8 9 10 10 10 10 10 10 10 10 11 11 11 11 10 10 12
2 1 4 3 3 4 15 16 14 11 7 10 5 6 5 4 14 14 13 11 10 8 7 7 13 14 13 12 12 10 9 7 7 8 10 9 9 9 10 10 11 11 11 11 11 10 9 9 10
2 1 4 5 7 9 17 16 19 16 14 13 12 8 4 11 16 11 10 7 7 11 9 8 11 13 12 12 12 10 9 7 6 7 8 9 9 9 10 10 11 10 12 12 12 10 8 7 8
3 1 4 6 8 18 17 12 13 13 13 8 9 6 6 10 12 10 7 6 9 9 9 7 6 10 13 12 12 11 10 8 7 7 8 10 8 9 8 9 10 10 10 11 11 10 9 6 5
4 3 2 3 6 4 12 6 10 15 5 13 9 6 9 11 10 7 6 6 7 7 7 7 7 6 5 5 12 11 10 9 8 8 8 9 9 9 8 8 9 10 10 11 11 10 8 6 3
4 3 6 4 5 4 6 6 3 5 16 4 5 7 13 17 12 6 4 4 5 3 6 7 6 6 6 5 5 8 9 10 9 7 8 6 3 3 5 5 8 10 10 10 9 10 9 7 6
4 5 4 5 7 6 5 11 12 9 13 10 16 16 17 15 13 11 8 6 5 5 6 8 7 7 6 5 5 5 4 1 2 3 4 3 4 4 4 6 10 11 11 10 9 7 9 8 3
3 6 8 7 7 12 9 4 9 19 8 19 22 20 20 18 13 10 9 10 12 7 7 8 8 7 7 7 4 2 2 2 3 5 4 4 3 3 2 2 2 2 7 1 4 3 2 3 3
10 4 6 5 6 5 8 6 16 12 11 19 22 22 18 16 13 13 12 11 7 7 8 8 8 7 6 2 4 4 4 3 3 5 6 4 3 4 4 3 4 4 2 4 3 3 4 4 3
4 4 6 9 11 8 10 7 7 11 20 17 18 20 20 17 16 13 14 11 10 9 10 7 8 9 8 7 4 3 3 3 5 4 5 4 2 3 3 4 4 4 3 3 4 4 3 3 4
5 15 10 10 9 7 10 12 8 15 20 18 19 20 19 18 17 14 13 12 13 14 13 9 9 10 9 5 6 4 3 4 4 3 5 5 4 4 4 3 4 4 4 3 4 4 4 4 3
4 7 8 7 3 6 3 6 8 15 20 21 18 18 18 18 16 17 17 14 15 13 13 15 11 9 9 9 6 5 4 4 5 4 5 6 5 5 5 4 4 4 4 5 4 4 3 3 4
4 5 4 4 2 5 7 2 11 17 17 14 16 17 17 19 20 16 14 15 9 14 15 15 13 13 11 7 5 4 2 3 2 2 3 2 3 3 4 3 4 4 4 3 3 2 3 4 3
4 2 4 5 5 4 5 7 8 17 17 14 10 8 11 12 16 10 11 12 13 15 15 14 13 12 8 6 4 3 5 4 3 2 1 3 5 5 3 2 3 2 3 3 3 4 3 3 4
5 2 3 5 4 3 3 8 5 10 16 15 13 9 7 10 12 14 10 13 10 13 15 14 10 10 7 5 4 2 2 1 1 2 2 1 1 3 2 1 3 2 1 3 3 2 4 3 4
8 6 5 7 10 6 11 7 6 4 7 12 11 9 11 9 9 13 13 13 6 6 6 11 10 9 7 3 3 1 2 2 2 3 3 5 4 4 3 3 3 3 3 4 4 2 3 2 3
8 2 7 4 12 6 8 11 5 5 8 14 16 12 13 9 12 8 10 11 12 10 7 8 11 10 7 4 2 2 2 2 3 3 5 6 6 6 4 5 4 4 3 5 5 5 2 2 3
6 5 7 9 11 6 11 7 7 6 12 9 4 5 10 13 14 10 15 15 15 8 9 8 8 10 9 8 4 2 3 1 1 1 3 4 5 5 5 5 4 4 3 3 3 2 2 2 2
7 18 9 14 7 7 11 6 7 10 10 9 9 2 8 8 15 14 17 17 14 8 8 9 8 9 7 8 5 6 3 2 1 1 3 1 1 2 3 3 2 1 3 4 3 2 1 2 2
14 4 15 17 18 5 14 2 8 2 5 11 11 7 9 10 19 18 18 17 14 8 8 10 7 6 6 10 6 6 6 3 4 3 3 4 4 6 6 5 4 5 4 3 4 4 4 0 1
12 5 4 4 6 3 6 6 6 7 10 6 7 11 11 11 18 15 14 11 12 8 7 8 9 6 7 7 6 7 6 6 4 4 2 2 3 3 5 6 5 4 4 4 4 4 3 2 2
5 6 4 5 5 6 3 4 9 9 6 13 16 16 16 16 15 17 14 10 10 9 8 7 9 8 9 10 8 7 7 4 5 5 4 5 3 3 4 5 5 4 5 5 5 4 5 4 3
5 9 7 7 4 7 2 5 8 4 5 6 10 10 10 11 14 16 14 14 9 9 10 8 11 12 10 9 7 6 7 4 4 5 5 5 3 3 4 6 5 5 5 5 5 4 4 4 5
11 3 9 8 1 4 3 6 11 3 5 9 8 16 16 13 11 17 14 9 10 8 10 12 12 11 10 9 7 7 7 8 8 7 6 4 4 5 6 6 6 6 6 6 5 4 5 5 4
8 4 1 4 3 3 4 5 7 5 12 9 8 12 8 9 14 18 16 10 10 13 11 11 10 11 8 8 7 8 8 8 8 7 7 6 6 6 6 6 6 6 6 6 6 4 4 4 4
7 4 4 7 6 7 3 9 9 16 19 11 10 10 10 12 17 17 15 13 12 12 12 11 9 10 10 8 8 10 7 7 7 7 6 6 6 6 6 7 6 6 6 6 6 5 6 7 7
6 10 9 7 8 3 6 9 5 20 17 9 9 3 8 16 18 15 16 15 14 13 12 10 9 10 9 9 9 9 8 7 7 7 6 6 7 6 7 6 6 6 6 6 6 6 5 7 6
Wind_Direction
158 161 173 210 62 49 62 97 131 127 165 196 163 144 175 81 98 177 56 76 109 119 140 142 139 134 132 128 125 119 110 106 104 105 104 102 104 110 110 106 112 116 124 122 111 116 111 110 111
147 151 243 265 86 76 349 164 128 156 169 129 161 104 86 73 69 120 93 132 127 136 132 114 127 133 137 135 131 117 115 116 114 113 113 119 125 122 118 112 115 119 126 116 119 118 116 118 111
156 193 245 126 106 140 132 125 118 122 132 154 116 105 57 76 122 108 124 127 125 119 125 136 135 140 139 133 129 129 129 123 125 124 127 134 122 127 122 123 125 125 119 123 117 112 114 112 107
177 124 281 73 81 40 80 137 134 131 119 115 110 78 63 76 156 141 141 132 139 131 136 130 138 145 145 142 141 139 131 128 137 135 129 132 131 127 131 131 125 129 122 124 124 115 108 102 106
294 79 17 52 33 67 102 121 126 114 91 113 116 92 85 34 119 137 148 149 141 131 133 140 143 144 147 149 150 146 141 140 143 134 132 141 137 139 136 137 136 134 131 132 129 126 117 111 108
329 109 51 52 45 125 108 123 108 98 94 105 98 99 65 144 140 158 153 155 144 145 145 155 152 144 151 158 155 153 160 159 159 141 138 143 152 152 149 143 140 147 147 146 139 135 125 114 108
159 284 159 84 82 109 130 144 114 127 123 121 140 81 130 159 160 156 147 124 133 143 147 140 158 162 169 167 162 166 171 171 171 163 161 165 165 163 161 154 153 162 157 154 147 151 138 136 125
193 122 83 60 99 81 157 143 127 135 95 120 136 150 169 178 170 154 119 122 116 146 154 161 159 165 173 174 171 177 180 179 182 184 179 181 172 162 169 170 175 169 166 166 167 163 160 169 171
143 94 85 145 113 148 128 115 164 118 132 144 188 124 142 158 159 130 116 117 132 139 171 162 167 172 177 181 185 185 197 197 193 201 196 185 151 178 177 186 191 186 182 183 185 176 180 190 208
144 118 121 148 148 133 122 137 137 119 137 98 98 107 140 157 163 157 163 172 165 176 184 177 176 179 174 181 191 182 194 232 228 219 217 174 188 200 180 205 202 196 197 191 200 194 198 203 203
239 100 115 151 137 144 144 165 122 131 135 149 148 154 156 163 171 175 177 188 198 194 175 187 190 194 180 186 170 182 175 201 223 227 221 199 189 212 201 203 240 263 214 196 204 217 208 159 168
95 78 118 152 122 126 141 120 143 152 165 158 153 155 158 171 176 175 194 194 187 190 199 176 195 182 185 171 199 189 177 194 223 224 211 197 213 189 191 211 206 221 208 188 194 210 228 208 220
41 80 39 87 96 88 100 85 128 130 143 150 154 155 169 178 184 190 192 195 180 186 198 217 171 161 181 185 227 216 200 200 220 223 221 194 180 217 184 221 203 211 187 201 229 220 234 241 217
208 70 71 67 29 102 114 126 103 139 147 154 164 171 175 184 191 186 201 197 185 204 190 167 177 168 175 191 207 199 186 214 200 226 227 218 187 167 208 212 238 229 206 212 205 209 215 232 212
335 86 77 33 67 51 13 52 118 144 154 163 176 180 185 194 195 195 195 197 191 199 185 170 178 162 174 188 195 176 197 179 182 219 224 218 196 198 191 183 224 226 222 226 228 231 224 247 245
286 43 99 185 122 45 80 158 143 159 156 163 179 191 196 200 196 199 197 203 157 167 169 169 173 174 176 183 163 156 163 144 186 214 246 260 194 204 204 200 217 214 220 196 218 232 245 248 240
21 331 42 58 45 116 87 234 218 171 158 169 185 199 205 189 189 183 186 187 173 167 163 176 170 168 175 165 145 160 150 163 170 212 177 231 210 187 191 209 232 232 215 218 189 210 214 237 239
241 202 161 156 224 116 137 278 283 171 163 180 187 191 213 179 167 170 173 190 178 175 172 172 164 159 155 120 95 89 98 183 152 213 151 219 180 131 161 266 289 257 256 285 290 222 212 229 235
196 188 177 131 207 143 196 188 302 343 203 188 197 180 191 186 169 184 176 185 122 132 183 166 147 153 140 137 131 94 217 184 186 194 240 235 231 213 200 232 255 239 230 238 239 239 238 266 221
215 234 192 288 156 144 176 237 258 263 256 212 193 192 186 146 157 153 151 160 185 180 150 144 163 156 148 174 139 159 174 208 192 178 227 219 216 215 206 228 260 253 257 261 250 218 200 252 201
251 218 166 211 161 212 118 306 293 286 224 254 205 186 200 162 166 161 163 176 188 172 148 140 152 165 165 109 114 1 30 341 46 294 258 224 239 216 218 228 233 261 242 266 287 305 187 215 287
198 226 231 209 161 196 207 228 229 216 244 247 239 73 213 183 175 171 175 184 178 180 144 129 151 161 145 156 136 150 214 200 288 186 276 184 263 80 18 339 309 333 14 7 0 349 251 193 262
251 228 221 206 206 147 205 154 273 180 222 213 201 216 172 183 186 182 184 185 186 155 159 151 159 149 166 171 155 164 191 213 151 266 253 49 60 69 75 69 46 53 48 33 34 1 17 26 243
267 290 29 64 136 52 199 143 262 209 203 164 191 186 189 167 186 179 193 176 192 183 137 140 149 173 154 153 164 184 165 187 140 182 187 115 78 62 53 74 63 58 55 32 4 357 49 36 59
84 61 337 344 359 223 191 112 227 219 199 162 191 194 183 163 153 171 180 185 198 174 138 137 151 146 133 126 146 153 167 177 164 172 130 124 90 57 54 67 49 50 43 28 18 35 41 19 51
264 158 155 199 214 252 136 244 261 259 142 183 233 215 173 159 145 166 176 183 196 175 141 140 138 128 137 129 143 144 127 113 86 96 108 109 117 120 75 72 74 56 46 33 30 34 36 40 47
280 226 190 115 63 78 226 294 309 60 296 248 213 194 175 176 152 157 170 189 182 179 154 140 132 135 141 140 136 119 119 118 115 109 98 106 103 90 87 84 72 52 45 34 20 33 32 39 49
161 207 283 9 167 280 296 293 240 208 239 239 226 238 160 161 150 158 163 162 151 148 141 134 142 145 145 138 128 124 126 119 119 117 113 108 102 95 82 77 71 57 45 35 36 26 9 37 11
326 309 65 119 138 164 190 254 219 201 216 217 219 203 205 158 154 160 147 145 140 140 140 143 148 136 130 130 125 119 116 111 108 109 103 106 98 95 82 86 71 57 46 25 32 28 39 59 53
206 227 187 144 260 227 157 263 223 208 208 183 242 262 170 163 153 150 135 137 144 145 145 144 134 122 120 112 109 114 111 101 101 98 96 101 91 79 100 94 76 66 60 43 40 54 57 72 68